Simultaneous Nadir Overpasses (SNOs) Predictions

Prediction of SNOs between NOAA-20 and METOP-C Satellite Orbit:

Table of predicted SNOs for the next 14.0 days since TLE Epoch: 11/18/2023
Index Date (NOAA-20) Time (NOAA-20) Lat,Lon (NOAA-20) SZA (NOAA-20 ) Date (METOP-C) Time (METOP-C) Lat,Lon (METOP-C) SZA (METOP-C ) Distance(km) Time Diff (sec)
1 11/21/2023 21:09:12 73.50,-147.03 93.49 11/21/2023 21:10:19 73.43,-144.39 93.37 83.60 67
2 11/21/2023 21:59:55 -73.44, 20.41 86.56 11/21/2023 22:01:03 -73.36, 22.76 86.70 75.11 68
3 11/21/2023 22:50:36 73.20,-171.73 93.19 11/21/2023 22:51:46 73.16,-170.34 93.12 45.16 70
4 11/21/2023 23:41:19 -73.14, -4.30 86.86 11/21/2023 23:42:30 -73.09, -3.17 86.95 36.88 71
5 11/22/2023 00:32:00 72.90, 163.54 92.89 11/22/2023 00:33:13 72.89, 163.74 92.88 6.71 73
6 11/22/2023 01:22:43 -72.85, -29.03 87.16 11/22/2023 01:23:56 -72.87, -28.98 87.14 3.13 73
7 11/22/2023 02:13:29 72.85, 138.26 92.86 11/22/2023 02:14:36 72.82, 138.26 92.83 3.04 67
8 11/22/2023 03:04:13 -72.85, -54.42 87.14 11/22/2023 03:05:18 -72.85, -54.36 87.15 1.73 65
9 11/22/2023 03:54:59 72.85, 112.88 92.88 11/22/2023 03:55:57 72.86, 112.98 92.87 3.31 58
10 11/22/2023 04:45:43 -72.85, -79.80 87.12 11/22/2023 04:46:40 -72.83, -79.74 87.15 2.79 57
11 11/22/2023 05:36:28 72.81, 87.61 92.84 11/22/2023 05:37:19 72.84, 87.60 92.87 3.41 51
12 11/22/2023 06:27:12 -72.80,-105.07 87.16 11/22/2023 06:28:02 -72.81,-105.12 87.15 1.95 50
13 11/22/2023 07:17:58 72.81, 62.23 92.86 11/22/2023 07:18:41 72.82, 62.23 92.87 0.99 43
14 11/22/2023 08:08:42 -72.81,-130.45 87.14 11/22/2023 08:09:24 -72.79,-130.50 87.15 2.11 42
15 11/22/2023 08:59:28 72.81, 36.85 92.88 11/22/2023 09:00:03 72.80, 36.85 92.86 1.44 35
16 11/22/2023 09:50:12 -72.81,-155.83 87.12 11/22/2023 09:50:45 -72.83,-155.77 87.11 2.66 33
17 11/22/2023 10:40:57 72.76, 11.57 92.85 11/22/2023 10:41:25 72.78, 11.47 92.86 3.84 28
18 11/22/2023 11:31:42 -72.81, 178.79 87.10 11/22/2023 11:32:07 -72.81, 178.85 87.11 2.06 25
19 11/22/2023 12:22:27 72.77, -13.81 92.86 11/22/2023 12:22:47 72.76, -13.91 92.86 3.41 20
20 11/22/2023 13:13:11 -72.77, 153.51 87.14 11/22/2023 13:13:29 -72.79, 153.47 87.11 2.99 18
21 11/22/2023 14:03:57 72.77, -39.19 92.88 11/22/2023 14:04:08 72.79, -39.18 92.90 2.58 11
22 11/22/2023 14:54:41 -72.77, 128.13 87.12 11/22/2023 14:54:51 -72.77, 128.09 87.12 1.39 10
23 11/22/2023 15:45:27 72.77, -64.57 92.90 11/22/2023 15:45:30 72.78, -64.56 92.90 0.31 3
24 11/22/2023 16:36:11 -72.77, 102.75 87.10 11/22/2023 16:36:13 -72.75, 102.71 87.12 2.57 2
25 11/22/2023 17:26:57 72.78, -89.95 92.92 11/22/2023 17:26:52 72.76, -89.94 92.90 2.32 5
26 11/22/2023 18:17:41 -72.77, 77.37 87.08 11/22/2023 18:17:34 -72.78, 77.44 87.07 2.43 7
27 11/22/2023 19:08:26 72.73,-115.23 92.88 11/22/2023 19:08:14 72.74,-115.32 92.90 3.20 12
28 11/22/2023 19:59:11 -72.78, 51.99 87.06 11/22/2023 19:58:56 -72.76, 52.06 87.08 2.68 15
29 11/22/2023 20:49:56 72.73,-140.61 92.90 11/22/2023 20:49:36 72.72,-140.70 92.89 3.35 20
30 11/22/2023 21:40:40 -72.73, 26.71 87.10 11/22/2023 21:40:18 -72.75, 26.68 87.08 2.10 22
31 11/22/2023 22:31:26 72.74,-165.99 92.92 11/22/2023 22:30:57 72.75,-165.97 92.94 1.79 29
32 11/22/2023 23:22:10 -72.73, 1.33 87.08 11/22/2023 23:21:40 -72.73, 1.30 87.08 1.24 30
33 11/23/2023 00:12:56 72.74, 168.63 92.94 11/23/2023 00:12:19 72.73, 168.65 92.94 0.96 37
34 11/23/2023 01:03:40 -72.74, -24.05 87.06 11/23/2023 01:03:02 -72.71, -24.08 87.09 3.23 38
35 11/23/2023 01:54:26 72.74, 143.25 92.96 11/23/2023 01:53:41 72.71, 143.27 92.93 3.25 45
36 11/23/2023 02:45:10 -72.74, -49.43 87.04 11/23/2023 02:44:23 -72.74, -49.35 87.04 2.53 47
37 11/23/2023 03:35:55 72.69, 117.97 92.92 11/23/2023 03:35:03 72.69, 117.89 92.93 2.70 52
38 11/23/2023 04:26:39 -72.69, -74.71 87.08 11/23/2023 04:25:45 -72.72, -74.73 87.04 3.44 54
39 11/23/2023 05:17:25 72.70, 92.59 92.94 11/23/2023 05:16:24 72.73, 92.62 92.97 3.36 61
40 11/23/2023 06:08:09 -72.69,-100.09 87.06 11/23/2023 06:07:07 -72.70,-100.11 87.05 1.20 62
41 11/23/2023 06:58:55 72.70, 67.21 92.96 11/23/2023 06:57:46 72.71, 67.24 92.97 1.23 69
42 11/23/2023 07:49:38 -72.70,-125.47 87.04 11/23/2023 07:48:28 -72.68,-125.49 87.05 1.70 70
43 11/23/2023 08:40:22 72.60, 42.04 92.87 11/23/2023 08:39:08 72.64, 41.75 92.92 10.21 74
44 11/23/2023 09:31:05 -72.55,-150.54 87.18 11/23/2023 09:29:52 -72.56,-151.08 87.15 17.98 73
45 11/23/2023 10:21:46 72.30, 17.27 92.57 11/23/2023 10:20:36 72.31, 15.76 92.63 50.90 70
46 11/23/2023 11:12:30 -72.30,-175.41 87.43 11/23/2023 11:11:19 -72.29,-176.96 87.39 52.35 71
47 11/23/2023 12:03:10 71.99, -7.52 92.27 11/23/2023 12:02:04 71.98, -10.21 92.33 92.38 66
48 11/23/2023 12:53:53 -71.94, 159.89 87.78 11/23/2023 12:52:47 -71.96, 157.07 87.69 97.17 66



Historial Predications of SNOs between NOAA-20 and METOP-C
